Powrót do katalogu

MISR-C-1

AktywnyNaukaVLEO
NORAD 68628·PAYLOAD·🇺🇸 United States

Wystrzelony Apr 7, 2026 z Vandenberg Space Force Base

Loading…

Następne Przeloty (najbliższe 24 godziny)

TLE

ŚwieżeSource: Space-Track

Epoka: Sep 14, 2026, 05:25 UTC

1 68628U 26074B   26257.22620950  .00007750  00000-0  30838-3 0  9991
2 68628  60.0232 196.4654 0035565  80.5743 279.9356 15.25598516 24353

Śledź MISR-C-1 w czasie rzeczywistym z AllMySat

Download on the App Store